[[{"header":{"parameterUnit":"m.s-1","parameterCategory":1,"la1":30.2991,"la2":30.254,"lo1":-89.0895,"lo2":-89.0444,"dy":0.0017,"dx":0.0017,"nx":28,"ny":28,"refTime":"2025-05-22T09:00:00:Z","depth":0,"parameterNumber":2,"parameterNumberName":"U-component_of_WINDS"},"data":[0,0,0,0,0,0,0,0,0,0,0,0,0,0,0,0,0,0,0,0,0,0,0,0,0,0,0,0,0,0,0,0,0,0,0,0,0,0,0,0,0,0,0,0,0,0,0,0,0,0,0,0,0,0,0,0,0,0,-1.9461,-1.9461,0,-1.9431,-1.9431,-1.9431,-1.937,-1.9369,-1.9367,-1.9366,-1.9336,-1.9336,-1.9336,0,0,0,0,0,0,0,0,0,0,0,0,0,-1.9468,-1.9468,-1.9461,-1.9461,-1.9461,-1.9431,-1.9431,-1.9431,-1.937,-1.9369,-1.9367,-1.9366,-1.9336,-1.9336,-1.9336,0,0,0,0,0,0,0,0,0,0,0,0,0,-1.9454,-1.9468,-1.9461,-1.9427,-1.9423,-1.9432,-1.9431,-1.943,-1.937,-1.9368,-1.9367,-1.9365,-1.9336,-1.9336,-1.9337,-1.9376,0,0,-1.9338,-1.9338,0,0,0,0,0,0,0,0,-1.9455,-1.9454,-1.9432,-1.9429,-1.9425,-1.9402,-1.9422,-1.9412,-1.9371,-1.939,-1.9366,-1.9364,-1.9359,-1.9358,-1.9356,-1.9375,-1.9373,-1.9338,-1.9338,-1.9339,-1.9339,0,0,0,0,0,0,0,-1.9456,-1.9455,-1.9449,-1.9432,-1.9428,-1.9413,-1.9409,-1.942,-1.9386,-1.9389,-1.9384,-1.9381,-1.9357,-1.9356,-1.9355,-1.9373,-1.9338,-1.9338,-1.9339,-1.9339,-1.9424,-1.9425,0,0,0,0,0,0,-1.9462,-1.9456,-1.945,-1.9448,-1.9436,-1.9415,-1.941,-1.9412,-1.9385,-1.9379,-1.9383,-1.9379,-1.9356,-1.9355,-1.9354,-1.9399,-1.9339,-1.9339,-1.9339,-1.9422,-1.9424,-1.9426,0,0,0,0,0,0,-1.9462,-1.9462,-1.9452,-1.9451,-1.9449,-1.9417,-1.9419,-1.9412,-1.9411,-1.9381,-1.9375,-1.9388,-1.9355,-1.9353,-1.9371,-1.9397,-1.9339,-1.934,-1.9419,-1.9422,-1.9425,-1.9489,0,0,0,0,0,0,-1.9463,-1.9462,-1.9476,-1.9452,-1.9449,-1.9469,-1.942,-1.9413,-1.9412,-1.9406,-1.9384,-1.9379,-1.9353,-1.9371,-1.9372,-1.9396,-1.934,-1.9417,-1.9421,-1.9424,-1.9484,-1.9493,-1.9501,0,0,0,0,0,-1.9463,-1.9495,-1.9477,-1.9477,-1.9466,-1.9471,-1.9469,-1.9439,-1.9414,-1.9428,-1.941,-1.9379,-1.9394,-1.9373,-1.9374,-1.9399,-1.9415,-1.942,-1.9424,-1.948,-1.9491,-1.9501,0,0,0,0,0,0,-1.9523,-1.9491,-1.9471,-1.9496,-1.9487,-1.946,-1.9477,-1.9452,-1.9449,-1.9443,-1.9406,-1.9402,-1.9425,-1.9414,-1.9391,-1.9437,-1.94,-1.9405,-1.9443,-1.9453,-1.9462,-1.9463,-1.934,0,0,0,0,0,-1.9539,-1.9545,-1.9518,-1.9543,-1.9539,-1.9509,-1.951,-1.9488,-1.9477,-1.9472,-1.9455,-1.9445,-1.9448,-1.945,-1.9451,-1.9483,-1.9478,-1.9501,-1.9509,-1.9517,-1.9521,-1.9538,-1.9548,-1.9441,-1.9441,-1.944,0,0,-1.9573,-1.9556,-1.9562,-1.9554,-1.9544,-1.9552,-1.9506,-1.9516,-1.9522,-1.9474,-1.9489,-1.9477,-1.9464,-1.949,-1.95,-1.9481,-1.955,-1.9522,-1.9528,-1.9528,-1.9543,-1.9554,-1.9563,-1.9444,-1.9443,-1.9443,0,0,-1.9637,-1.9625,-1.9645,-1.9636,-1.9622,-1.9603,-1.9608,-1.9586,-1.9575,-1.9591,-1.9556,-1.9563,-1.9568,-1.956,-1.9557,-1.9622,-1.9594,-1.9623,-1.9668,-1.9685,-1.9693,-1.9701,-1.9724,-1.9733,-1.9628,-1.9628,-1.9628,0,-1.968,-1.969,-1.9658,-1.9671,-1.9669,-1.9627,-1.9647,-1.9641,-1.9628,-1.9627,-1.9607,-1.9613,-1.9601,-1.9625,-1.9641,-1.964,-1.9645,-1.9625,-1.9695,-1.9702,-1.9708,-1.973,-1.9739,-1.9631,-1.9631,-1.9631,-1.963,0,-1.9744,-1.9752,-1.977,-1.9758,-1.9759,-1.9775,-1.9747,-1.9751,-1.973,-1.9713,-1.973,-1.9715,-1.9713,-1.9717,-1.9696,-1.9738,-1.9727,-1.9701,-1.9663,-1.9722,-1.9742,-1.975,-1.9637,-1.9635,-1.9634,-1.9633,0,0,-1.9843,-1.9816,-1.9823,-1.9818,-1.98,-1.9806,-1.9822,-1.9819,-1.9824,-1.9817,-1.9829,-1.9836,-1.9812,-1.9809,-1.9787,-1.9803,-1.9856,-1.9775,-1.9774,-1.979,-1.9902,-1.9921,-1.9931,-1.9838,-1.9839,-1.9841,-1.9903,0,-1.9903,-1.9927,-1.99,-1.993,-1.9937,-1.9899,-1.9913,-1.9904,-1.9889,-1.9894,-1.9878,-1.9883,-1.9851,-1.9849,-1.9863,-1.9846,-1.9877,-1.9841,-1.9849,-1.985,-1.9852,-1.9941,-1.9961,-2.002,-1.991,-1.9912,-1.9913,0,-1.9975,-1.9973,-2.0003,-1.9985,-1.9987,-2.0,-1.9997,-2.0002,-1.9992,-1.998,-1.9978,-1.9952,-1.9967,-1.9932,-1.9952,-1.9928,-1.993,-1.9923,-1.9925,-1.9923,-1.9884,-1.9942,-2.0039,-2.0047,-1.9925,-1.9924,-1.9923,0,-2.0045,-2.0049,-2.0068,-2.0065,-2.0044,-2.0054,-2.0046,-2.0034,-2.0035,-2.0033,-2.0033,-2.0033,-2.0033,-2.0033,-2.0009,-1.9985,-2.0033,-1.9995,-2.0024,-2.0024,-2.0034,-2.0033,-2.0132,-2.0037,-2.0037,-2.0037,-2.0036,0,-2.0114,-2.0134,-2.0099,-2.011,-2.0132,-2.0102,-2.0125,-2.0114,-2.0104,-2.0113,-2.0081,-2.009,-2.0058,-2.0064,-2.0046,-2.0066,-2.0066,-2.0057,-2.0052,-2.006,-2.0061,-2.0059,-2.0054,-2.0039,-2.0038,-2.0038,-2.0038,0,-2.0194,-2.0171,-2.0189,-2.0169,-2.0164,-2.0182,-2.0165,-2.0175,-2.0159,-2.0172,-2.0173,-2.0148,-2.0155,-2.0131,-2.0133,-2.012,-2.015,-2.0138,-2.0153,-2.0149,-2.0179,-2.0177,-2.0279,-2.0292,-2.019,-2.0191,-2.0192,0,-2.0239,-2.0253,-2.0235,-2.0239,-2.0233,-2.024,-2.0241,-2.0213,-2.0216,-2.0207,-2.0219,-2.0223,-2.0224,-2.0236,-2.0218,-2.022,-2.0208,-2.0244,-2.0208,-2.0216,-2.0208,-2.0207,-2.0209,-2.0251,-2.0252,-2.0253,-2.0254,0,-2.0321,-2.031,-2.0312,-2.0312,-2.0315,-2.0313,-2.0309,-2.0314,-2.0284,-2.0289,-2.0295,-2.0296,-2.0299,-2.0304,-2.0302,-2.0295,-2.027,-2.0266,-2.0273,-2.028,-2.0288,-2.0284,-2.0173,-2.0263,-2.0262,-2.0262,-2.0261,-2.0261,-2.0385,-2.0397,-2.0386,-2.0391,-2.0385,-2.0383,-2.0392,-2.0378,-2.0382,-2.0382,-2.0366,-2.0376,-2.0368,-2.0363,-2.0359,-2.0366,-2.035,-2.0359,-2.0361,-2.0364,-2.0369,-2.0288,-2.0366,-2.0366,-2.0366,-2.0365,-2.0365,0,-2.0465,-2.0457,-2.0462,-2.0458,-2.0462,-2.0439,-2.0434,-2.0439,-2.0448,-2.0442,-2.0445,-2.0453,-2.0457,-2.0441,-2.0444,-2.0453,-2.0442,-2.0455,-2.0454,-2.0452,-2.0384,-2.0378,-2.0464,-2.0464,-2.0464,-2.0464,-2.0464,-2.0464,-2.0508,-2.0527,-2.0514,-2.0531,-2.0523,-2.0532,-2.0531,-2.0529,-2.0525,-2.0535,-2.0539,-2.0529,-2.0519,-2.0521,-2.0525,-2.052,-2.0522,-2.0539,-2.0531,-2.0467,-2.0457,-2.0448,-2.0442,-2.054,-2.054,-2.0598,-2.0599,-2.0599]},{"header":{"parameterUnit":"m.s-1","parameterCategory":1,"la1":30.2991,"la2":30.254,"lo1":-89.0895,"lo2":-89.0444,"dy":0.0017,"dx":0.0017,"nx":28,"ny":28,"refTime":"2025-05-22T09:00:00:Z","depth":0,"parameterNumber":3,"parameterNumberName":"V-component_of_WINDS"},"data":[0,0,0,0,0,0,0,0,0,0,0,0,0,0,0,0,0,0,0,0,0,0,0,0,0,0,0,0,0,0,0,0,0,0,0,0,0,0,0,0,0,0,0,0,0,0,0,0,0,0,0,0,0,0,0,0,0,0,2.854,2.854,0,2.8558,2.8558,2.8558,2.8598,2.8599,2.86,2.8601,2.8615,2.8615,2.8614,0,0,0,0,0,0,0,0,0,0,0,0,0,2.8538,2.8537,2.854,2.854,2.854,2.8558,2.8558,2.8558,2.8598,2.8599,2.86,2.8601,2.8615,2.8615,2.8614,0,0,0,0,0,0,0,0,0,0,0,0,0,2.8545,2.8537,2.854,2.8562,2.8565,2.8558,2.8558,2.8558,2.8598,2.8599,2.86,2.8602,2.8615,2.8615,2.8614,2.8585,0,0,2.8612,2.8612,0,0,0,0,0,0,0,0,2.8545,2.8545,2.8559,2.8561,2.8563,2.8577,2.8563,2.8567,2.8598,2.8585,2.8601,2.8602,2.8601,2.8602,2.8602,2.8586,2.8587,2.8612,2.8612,2.8612,2.8611,0,0,0,0,0,0,0,2.8544,2.8545,2.8547,2.8559,2.8562,2.8571,2.8573,2.8564,2.8586,2.8586,2.8589,2.8591,2.8603,2.8603,2.8603,2.8587,2.8612,2.8612,2.8611,2.8611,2.855,2.8548,0,0,0,0,0,0,2.8541,2.8544,2.8546,2.8547,2.8557,2.857,2.8573,2.8571,2.8586,2.859,2.859,2.8593,2.8603,2.8603,2.8603,2.8572,2.8612,2.8611,2.8611,2.8551,2.8549,2.8548,0,0,0,0,0,0,2.8541,2.8541,2.8546,2.8547,2.8548,2.8569,2.8567,2.8571,2.8571,2.8589,2.8593,2.8586,2.8604,2.8604,2.859,2.8573,2.8611,2.861,2.8552,2.855,2.8549,2.8508,0,0,0,0,0,0,2.854,2.854,2.853,2.8546,2.8548,2.8533,2.8566,2.8571,2.8571,2.8575,2.8586,2.8589,2.8605,2.8591,2.859,2.8573,2.861,2.8554,2.8551,2.8549,2.8511,2.8505,2.85,0,0,0,0,0,2.854,2.8517,2.8529,2.8529,2.8536,2.8532,2.8532,2.8552,2.8569,2.8559,2.857,2.8589,2.8575,2.8589,2.8588,2.8571,2.8555,2.8552,2.8549,2.8513,2.8506,2.85,0,0,0,0,0,0,2.8496,2.8519,2.8533,2.8515,2.8521,2.8538,2.8526,2.8543,2.8544,2.8547,2.8571,2.8573,2.8556,2.8562,2.8577,2.8545,2.8568,2.8565,2.8541,2.8534,2.8529,2.8528,2.8609,0,0,0,0,0,2.8485,2.848,2.85,2.8482,2.8484,2.8505,2.8503,2.8518,2.8525,2.8528,2.8538,2.8543,2.854,2.8538,2.8536,2.8512,2.8515,2.85,2.8494,2.8489,2.8486,2.8475,2.8469,2.8539,2.8539,2.8539,0,0,2.846,2.8472,2.8467,2.8473,2.848,2.8475,2.8506,2.8499,2.8495,2.8526,2.8514,2.8522,2.8529,2.8511,2.8503,2.8515,2.8468,2.8486,2.8482,2.8481,2.8472,2.8465,2.8459,2.8537,2.8537,2.8537,0,0,2.8412,2.8421,2.8407,2.8414,2.8425,2.8439,2.8435,2.845,2.8457,2.8446,2.847,2.8465,2.8459,2.8464,2.8465,2.8422,2.8439,2.8421,2.8391,2.838,2.8375,2.837,2.8355,2.8349,2.8417,2.8417,2.8417,0,2.838,2.8374,2.8397,2.8389,2.8391,2.8422,2.8408,2.8412,2.8421,2.8421,2.8436,2.843,2.8437,2.8421,2.841,2.841,2.8407,2.8419,2.8374,2.8369,2.8365,2.8351,2.8346,2.8415,2.8415,2.8416,2.8416,0,2.8334,2.833,2.8317,2.8327,2.8328,2.8316,2.8338,2.8335,2.8351,2.8363,2.8351,2.8361,2.8362,2.836,2.8373,2.8345,2.8353,2.837,2.8394,2.8356,2.8343,2.8338,2.8412,2.8413,2.8413,2.8414,0,0,2.8258,2.8283,2.8278,2.8284,2.8298,2.8295,2.8285,2.8288,2.8286,2.8291,2.8284,2.8279,2.8296,2.8298,2.8313,2.8303,2.8269,2.8322,2.8322,2.8312,2.824,2.8227,2.822,2.8281,2.828,2.8279,2.8239,0,2.8214,2.8201,2.8222,2.8203,2.82,2.8229,2.8221,2.8229,2.824,2.8239,2.8251,2.8248,2.8269,2.8271,2.8263,2.8275,2.8255,2.8278,2.8274,2.8273,2.8271,2.8214,2.82,2.8161,2.8234,2.8234,2.8233,0,2.8161,2.8166,2.8147,2.8165,2.8164,2.8157,2.8162,2.816,2.817,2.8179,2.8182,2.82,2.8192,2.8216,2.8205,2.822,2.822,2.8225,2.8224,2.8225,2.8251,2.8212,2.8149,2.8144,2.8225,2.8226,2.8226,0,2.8108,2.811,2.81,2.8103,2.8124,2.8118,2.8126,2.8137,2.8138,2.8142,2.8143,2.8145,2.8147,2.8148,2.8167,2.8182,2.8153,2.8178,2.816,2.816,2.8152,2.8153,2.8089,2.8152,2.8152,2.8152,2.8152,0,2.8057,2.8044,2.8077,2.807,2.8057,2.8082,2.8068,2.8079,2.8089,2.8085,2.811,2.8105,2.813,2.8128,2.8142,2.8131,2.8131,2.8138,2.8142,2.8136,2.8135,2.8136,2.8139,2.8151,2.8151,2.8151,2.8151,0,2.7996,2.8017,2.8007,2.8028,2.8033,2.8023,2.804,2.8035,2.8049,2.8043,2.8043,2.8064,2.8063,2.8082,2.8084,2.8094,2.8077,2.8085,2.8074,2.8076,2.8058,2.8059,2.7992,2.7984,2.8052,2.8051,2.8051,0,2.7962,2.7953,2.7974,2.7974,2.7981,2.798,2.7982,2.8006,2.8007,2.8018,2.8012,2.8013,2.8016,2.8012,2.8027,2.8029,2.8038,2.8015,2.8039,2.8033,2.8039,2.8039,2.8039,2.8009,2.8009,2.8008,2.8007,0,2.7899,2.7911,2.7913,2.792,2.7922,2.7927,2.7934,2.7933,2.7959,2.7959,2.7959,2.7961,2.7965,2.7966,2.7971,2.7978,2.7997,2.8,2.7996,2.7989,2.7984,2.7987,2.806,2.8001,2.8002,2.8002,2.8002,2.8003,2.7851,2.7845,2.786,2.7862,2.787,2.7877,2.7874,2.7888,2.7889,2.7895,2.7909,2.7907,2.7918,2.7928,2.7934,2.7932,2.7944,2.7938,2.7936,2.7934,2.7931,2.7984,2.7933,2.7933,2.7933,2.7934,2.7934,0,2.7791,2.7802,2.7804,2.7814,2.7816,2.7836,2.7845,2.7845,2.7843,2.7853,2.7856,2.7856,2.7858,2.7874,2.7877,2.7873,2.7882,2.7873,2.7874,2.7875,2.792,2.7924,2.7866,2.7866,2.7866,2.7866,2.7866,2.7866,2.7759,2.7751,2.7765,2.7761,2.7772,2.7772,2.7776,2.7782,2.779,2.779,2.7793,2.7804,2.7816,2.7821,2.7823,2.7828,2.7828,2.7817,2.7824,2.7866,2.7872,2.7878,2.7882,2.7816,2.7816,2.7779,2.7779,2.7779]}]]